Powrót do katalogu

STARLINK-36082

AktywnyŁącznośćVLEO
NORAD 66872·PAYLOAD·🇺🇸 United States

Wystrzelony Dec 2, 2025 z Cape Canaveral Space Force Station

Loading…

Następne Przeloty (najbliższe 24 godziny)

TLE

ŚwieżeSource: CelesTrak SupGP

Epoka: Sep 14, 2026, 20:53 UTC

1 66872C 25281AA  26257.87062500  .00011575  00000+0  41926-3 0  2577
2 66872  43.0033 355.1432 0001462 271.7519 228.5401 15.27571964    12

Śledź STARLINK-36082 w czasie rzeczywistym z AllMySat

Download on the App Store